FW9607 Weather Reports


Display with metric or nautical units.
time (UTC)temp
F
wind
direction
speed
MPH
gust
MPH
rain 1hr
in
rain 24hr
in
rain mn
in
humidity
%
barometer
mb
20260831124944 81 140 2.0 3.0 0.00 0.00 0.00 88 1013.0
20260831123947 81 167 2.0 3.0 0.00 0.00 0.00 89 1012.9
20260831122944 81 130 2.0 3.0 0.00 0.00 0.00 89 1012.7
20260831122448 81 152 2.0 2.0 0.00 0.00 0.00 89 1012.7
20260831121941 81 154 2.0 2.0 0.00 0.00 0.00 89 1012.7
20260831120928 81 182 2.0 3.0 0.00 0.00 0.00 89 1012.7
20260831115928 81 126 1.0 2.0 0.00 0.00 0.00 89 1012.6
20260831115428 81 190 2.0 2.0 0.00 0.00 0.00 88 1012.5
20260831114928 81 170 2.0 2.0 0.00 0.00 0.00 88 1012.5
20260831114429 81 164 2.0 2.0 0.00 0.00 0.00 88 1012.5
20260831113928 81 167 2.0 3.0 0.00 0.00 0.00 88 1012.5
20260831113428 81 176 2.0 3.0 0.00 0.00 0.00 88 1012.4
20260831112928 81 145 2.0 3.0 0.00 0.00 0.00 88 1012.3
20260831112429 81 153 2.0 2.0 0.00 0.00 0.00 88 1012.3
20260831111429 81 162 2.0 3.0 0.00 0.00 0.00 89 1012.4
20260831110427 82 157 1.0 2.0 0.00 0.00 0.00 88 1012.4
20260831105904 82 167 1.0 2.0 0.00 0.00 0.00 88 1012.5
20260831105346 82 161 1.0 2.0 0.00 0.00 0.00 88 1012.5
20260831103846 82 157 1.0 2.0 0.00 0.00 0.00 88 1012.5
20260831103346 82 155 1.0 2.0 0.00 0.00 0.00 88 1012.5
20260831102846 82 145 1.0 2.0 0.00 0.00 0.00 88 1012.5
20260831102345 82 154 2.0 3.0 0.00 0.00 0.00 88 1012.5
20260831101846 82 181 2.0 3.0 0.00 0.00 0.00 88 1012.6
20260831101346 82 131 2.0 3.0 0.00 0.00 0.00 88 1012.6
20260831100845 82 123 2.0 3.0 0.00 0.00 0.00 88 1012.6
20260831100344 82 180 2.0 2.0 0.00 0.00 0.00 87 1012.6
20260831095344 82 119 2.0 3.0 0.00 0.00 0.00 87 1012.7
20260831094842 82 141 1.0 2.0 0.00 0.00 0.00 87 1012.6
20260831094344 82 113 1.0 2.0 0.00 0.00 0.00 87 1012.7
20260831093843 82 162 1.0 2.0 0.00 0.00 0.00 87 1012.7
20260831093343 82 156 1.0 3.0 0.00 0.00 0.00 87 1012.7
20260831092831 82 166 2.0 3.0 0.00 0.00 0.00 87 1012.6
20260831092330 82 163 2.0 3.0 0.00 0.00 0.00 86 1012.6
20260831091830 82 116 1.0 2.0 0.00 0.00 0.00 86 1012.6
20260831091331 82 123 2.0 3.0 0.00 0.00 0.00 86 1012.7
20260831090331 83 173 1.0 2.0 0.00 0.00 0.00 86 1012.7
20260831085830 83 127 2.0 3.0 0.00 0.00 0.00 86 1012.8
20260831085331 83 178 2.0 3.0 0.00 0.00 0.00 86 1012.8
20260831084830 83 113 2.0 3.0 0.00 0.00 0.00 86 1012.8
20260831084331 83 125 1.0 3.0 0.00 0.00 0.00 86 1012.8
20260831083822 83 135 1.0 3.0 0.00 0.00 0.00 85 1012.8
20260831083317 83 154 1.0 3.0 0.00 0.00 0.00 85 1012.9
20260831082816 83 160 1.0 3.0 0.00 0.00 0.00 85 1012.9
20260831082316 83 164 1.0 2.0 0.00 0.00 0.00 85 1012.9
20260831081807 83 167 1.0 2.0 0.00 0.00 0.00 85 1012.9
20260831081248 83 189 1.0 2.0 0.00 0.00 0.00 85 1012.9
20260831080751 83 179 1.0 2.0 0.00 0.00 0.00 85 1012.9
20260831080248 83 155 1.0 2.0 0.00 0.00 0.00 85 1013.0
20260831075752 83 196 1.0 2.0 0.00 0.00 0.00 85 1013.0
20260831075248 83 147 1.0 2.0 0.00 0.00 0.00 85 1013.0
20260831074753 83 193 1.0 2.0 0.00 0.00 0.00 85 1013.0
20260831073732 83 140 1.0 3.0 0.00 0.00 0.00 85 1013.1
20260831073231 83 151 1.0 2.0 0.00 0.00 0.00 85 1013.1
20260831072722 83 130 2.0 3.0 0.00 0.00 0.00 85 1013.1
20260831072219 83 134 2.0 3.0 0.00 0.00 0.00 85 1013.1
20260831071722 83 151 1.0 3.0 0.00 0.00 0.00 86 1013.2
20260831071218 83 150 1.0 2.0 0.00 0.00 0.00 85 1013.2
20260831070717 83 168 2.0 2.0 0.00 0.00 0.00 86 1013.2
20260831070217 83 125 2.0 2.0 0.00 0.00 0.00 86 1013.2
20260831065717 83 150 1.0 2.0 0.00 0.00 0.00 85 1013.3
20260831065217 83 206 1.0 2.0 0.00 0.00 0.00 85 1013.3
20260831064717 84 169 1.0 2.0 0.00 0.00 0.00 85 1013.3
20260831064218 84 165 2.0 3.0 0.00 0.00 0.00 85 1013.4
20260831063717 84 115 1.0 3.0 0.00 0.00 0.00 85 1013.3
20260831063217 84 134 1.0 3.0 0.00 0.00 0.00 85 1013.4
20260831062218 84 107 1.0 3.0 0.00 0.00 0.00 85 1013.4
20260831061703 84 153 1.0 3.0 0.00 0.00 0.00 84 1013.4
20260831061203 84 121 2.0 4.0 0.00 0.00 0.00 84 1013.3
20260831060647 84 186 2.0 4.0 0.00 0.00 0.00 84 1013.3
20260831055649 84 149 2.0 3.0 0.00 0.00 0.00 84 1013.2
20260831055154 84 134 2.0 3.0 0.00 0.00 0.00 84 1013.3
20260831054650 84 114 2.0 4.0 0.00 0.00 0.00 84 1013.2
20260831054153 85 160 2.0 4.0 0.00 0.00 0.00 83 1013.2
20260831053650 85 86 2.0 4.0 0.00 0.00 0.00 83 1013.2
20260831053155 85 170 2.0 4.0 0.00 0.00 0.00 83 1013.2
20260831052648 85 142 2.0 4.0 0.00 0.00 0.00 83 1013.1
20260831052153 85 132 2.0 4.0 0.00 0.00 0.00 83 1013.2
20260831051133 85 148 2.0 4.0 0.00 0.00 0.00 82 1013.3
20260831050118 85 183 2.0 4.0 0.00 0.00 0.00 82 1013.3
20260831045603 85 98 2.0 4.0 0.00 0.00 0.00 82 1013.2
20260831045104 85 159 2.0 4.0 0.00 0.00 0.00 82 1013.1
20260831044551 85 171 2.0 4.0 0.00 0.00 0.00 81 1013.1
20260831044049 85 125 2.0 5.0 0.00 0.00 0.00 81 1013.1
20260831043551 85 117 3.0 6.0 0.00 0.00 0.00 81 1013.0
20260831043049 85 175 2.0 6.0 0.00 0.00 0.00 81 1013.0
20260831042549 85 138 2.0 6.0 0.00 0.00 0.00 81 1013.0
20260831042050 85 155 3.0 8.0 0.00 0.00 0.00 81 1013.0
20260831041549 85 149 3.0 8.0 0.00 0.00 0.00 81 1013.0
20260831041050 85 120 3.0 7.0 0.00 0.00 0.00 81 1012.9
20260831035551 85 145 3.0 5.0 0.00 0.00 0.00 80 1012.9
20260831035050 86 134 2.0 5.0 0.00 0.00 0.00 79 1012.9
20260831034548 86 120 2.0 5.0 0.00 0.00 0.00 79 1012.8
20260831034047 86 173 2.0 7.0 0.00 0.00 0.00 78 1012.8
20260831033548 86 100 2.0 7.0 0.00 0.00 0.00 78 1012.8
20260831033048 86 129 2.0 7.0 0.00 0.00 0.00 77 1012.8
20260831032547 86 136 2.0 7.0 0.00 0.00 0.00 77 1012.8
20260831032048 86 90 2.0 6.0 0.00 0.00 0.00 77 1012.7
20260831031548 86 132 2.0 6.0 0.00 0.00 0.00 77 1012.7
20260831030549 86 129 2.0 8.0 0.00 0.00 0.00 77 1012.6
20260831030049 86 137 2.0 6.0 0.00 0.00 0.00 77 1012.5
20260831025549 86 145 2.0 6.0 0.00 0.00 0.00 76 1012.4
20260831025048 86 115 2.0 6.0 0.00 0.00 0.00 76 1012.4
20260831024548 86 149 2.0 6.0 0.00 0.00 0.00 76 1012.3
20260831024051 86 115 2.0 9.0 0.00 0.00 0.00 75 1012.2
20260831023548 86 135 2.0 9.0 0.00 0.00 0.00 75 1012.2
20260831023046 86 121 3.0 6.0 0.00 0.00 0.00 75 1012.1
20260831022545 86 141 3.0 12.0 0.00 0.00 0.00 75 1012.0
20260831022044 87 149 3.0 12.0 0.00 0.00 0.00 75 1012.0
20260831021544 87 139 2.0 6.0 0.00 0.00 0.00 75 1011.9
20260831021046 87 106 2.0 5.0 0.00 0.00 0.00 75 1011.9
20260831020545 87 87 3.0 8.0 0.00 0.00 0.00 75 1012.0
20260831020046 87 119 4.0 8.0 0.00 0.00 0.00 75 1011.9
20260831015545 87 115 3.0 7.0 0.00 0.00 0.00 75 1011.9
20260831015043 87 114 3.0 7.0 0.00 0.00 0.00 75 1011.8
20260831014540 87 133 3.0 9.0 0.00 0.00 0.00 75 1011.8
20260831014036 87 154 4.0 10.0 0.00 0.00 0.00 75 1011.7
20260831013034 87 141 3.0 9.0 0.00 0.00 0.00 74 1011.7
20260831012534 87 124 4.0 10.0 0.00 0.00 0.00 74 1011.6
20260831012034 87 87 4.0 10.0 0.00 0.00 0.00 74 1011.5
20260831011034 87 105 4.0 12.0 0.00 0.00 0.00 74 1011.4
20260831010534 88 133 4.0 9.0 0.00 0.00 0.00 74 1011.4
20260831010034 88 106 4.0 12.0 0.00 0.00 0.00 73 1011.4
20260831005534 88 128 4.0 12.0 0.00 0.00 0.00 73 1011.3
20260831005034 88 85 4.0 12.0 0.00 0.00 0.00 72 1011.3
20260831004034 88 123 5.0 13.0 0.00 0.00 0.00 72 1011.2
20260831003031 89 126 4.0 13.0 0.00 0.00 0.00 69 1011.1
20260831002028 89 161 4.0 9.0 0.00 0.00 0.00 68 1011.0
20260831001528 90 100 3.0 9.0 0.00 0.00 0.00 67 1010.9
20260831001028 90 176 3.0 8.0 0.00 0.00 0.00 66 1010.9
20260831000529 90 124 4.0 9.0 0.00 0.00 0.00 66 1010.9
20260831000030 90 147 5.0 15.0 0.00 0.00 0.00 65 1010.9
20260830235029 90 164 5.0 12.0 0.00 0.00 0.00 65 1010.9
20260830234529 91 109 5.0 12.0 0.00 0.00 0.00 64 1010.8
20260830233029 91 135 5.0 11.0 0.00 0.00 0.00 62 1010.9
20260830232530 91 101 5.0 12.0 0.00 0.00 0.00 62 1010.9
20260830232030 92 136 5.0 12.0 0.00 0.00 0.00 62 1010.7
20260830231530 92 81 5.0 11.0 0.00 0.00 0.00 60 1010.8
20260830231027 92 120 5.0 12.0 0.00 0.00 0.00 61 1010.7
20260830230527 92 122 4.0 12.0 0.00 0.00 0.00 59 1010.8
20260830230027 92 128 5.0 15.0 0.00 0.00 0.00 59 1010.8
20260830225527 92 121 5.0 15.0 0.00 0.00 0.00 59 1010.7
20260830225027 93 119 5.0 11.0 0.00 0.00 0.00 59 1010.8
20260830224527 92 75 5.0 11.0 0.00 0.00 0.00 56 1010.7
20260830224027 93 109 6.0 11.0 0.00 0.00 0.00 57 1010.7
20260830223527 93 124 5.0 11.0 0.00 0.00 0.00 57 1010.6
20260830223028 93 119 5.0 11.0 0.00 0.00 0.00 57 1010.4
20260830222527 93 147 5.0 11.0 0.00 0.00 0.00 56 1010.7
20260830222027 93 118 5.0 11.0 0.00 0.00 0.00 55 1010.7
20260830221527 93 99 5.0 11.0 0.00 0.00 0.00 55 1010.7
20260830221027 94 121 5.0 12.0 0.00 0.00 0.00 55 1010.7
20260830220527 94 91 5.0 12.0 0.00 0.00 0.00 53 1010.6
20260830220028 94 107 5.0 10.0 0.00 0.00 0.00 53 1010.7
20260830215525 94 176 5.0 10.0 0.00 0.00 0.00 54 1010.7
20260830215024 95 108 5.0 11.0 0.00 0.00 0.00 51 1010.7
20260830214525 95 98 5.0 11.0 0.00 0.00 0.00 52 1010.6
20260830214025 95 152 5.0 11.0 0.00 0.00 0.00 51 1010.6
20260830213525 95 124 4.0 11.0 0.00 0.00 0.00 53 1010.7
20260830213024 95 121 5.0 11.0 0.00 0.00 0.00 51 1010.7
20260830212025 96 135 5.0 13.0 0.00 0.00 0.00 51 1010.9
20260830211526 96 135 5.0 13.0 0.00 0.00 0.00 51 1010.8
20260830211025 96 117 5.0 10.0 0.00 0.00 0.00 51 1010.9
20260830210525 96 98 5.0 10.0 0.00 0.00 0.00 51 1010.9
20260830210026 97 112 5.0 12.0 0.00 0.00 0.00 50 1011.0
20260830205525 98 150 5.0 12.0 0.00 0.00 0.00 50 1011.0
20260830205025 98 87 4.0 13.0 0.00 0.00 0.00 48 1011.0
20260830204526 97 129 4.0 13.0 0.00 0.00 0.00 49 1011.1
20260830203521 98 119 5.0 13.0 0.00 0.00 0.00 50 1011.2
20260830203021 98 78 4.0 13.0 0.00 0.00 0.00 49 1011.3
20260830202522 98 95 4.0 9.0 0.00 0.00 0.00 50 1011.5
20260830202019 98 133 4.0 10.0 0.00 0.00 0.00 49 1011.5
20260830201520 98 146 4.0 10.0 0.00 0.00 0.00 50 1011.6
20260830201020 97 132 4.0 11.0 0.00 0.00 0.00 50 1011.7
20260830200520 97 128 4.0 12.0 0.00 0.00 0.00 51 1011.8
20260830200021 97 92 4.0 12.0 0.00 0.00 0.00 51 1011.8
20260830195520 97 133 4.0 12.0 0.00 0.00 0.00 51 1011.8
20260830195021 98 134 3.0 12.0 0.00 0.00 0.00 49 1011.8
20260830194520 98 113 3.0 8.0 0.00 0.00 0.00 49 1012.0
20260830194021 97 128 3.0 8.0 0.00 0.00 0.00 49 1012.1
20260830193021 97 93 3.0 9.0 0.00 0.00 0.00 50 1012.2
20260830192517 97 129 3.0 9.0 0.00 0.00 0.00 49 1012.4
20260830191514 97 156 3.0 7.0 0.00 0.00 0.00 50 1012.6
20260830191014 98 129 3.0 7.0 0.00 0.00 0.00 50 1012.7
20260830190014 98 133 3.0 7.0 0.00 0.00 0.00 50 1012.8
20260830185515 98 124 3.0 7.0 0.00 0.00 0.00 49 1012.9
20260830185016 97 138 3.0 7.0 0.00 0.00 0.00 51 1012.9
20260830184515 96 144 3.0 7.0 0.00 0.00 0.00 51 1012.9
20260830184015 96 106 3.0 7.0 0.00 0.00 0.00 53 1013.0
20260830183515 97 80 3.0 6.0 0.00 0.00 0.00 50 1013.0
20260830183015 96 188 3.0 8.0 0.00 0.00 0.00 52 1013.1
20260830182515 96 138 3.0 10.0 0.00 0.00 0.00 52 1013.1
20260830182015 96 81 3.0 10.0 0.00 0.00 0.00 52 1013.2
20260830181515 96 184 3.0 8.0 0.00 0.00 0.00 51 1013.2
20260830181012 96 136 3.0 7.0 0.00 0.00 0.00 51 1013.2
20260830180512 95 55 3.0 7.0 0.00 0.00 0.00 53 1013.3
20260830175510 96 144 3.0 7.0 0.00 0.00 0.00 52 1013.4
20260830175010 96 151 3.0 9.0 0.00 0.00 0.00 52 1013.5
20260830174510 96 78 3.0 9.0 0.00 0.00 0.00 51 1013.5
20260830174010 96 185 4.0 9.0 0.00 0.00 0.00 50 1013.6
20260830173510 96 187 3.0 8.0 0.00 0.00 0.00 50 1013.7
20260830173010 95 166 2.0 8.0 0.00 0.00 0.00 52 1013.7
20260830172510 96 201 3.0 8.0 0.00 0.00 0.00 53 1013.8
20260830172010 96 122 3.0 10.0 0.00 0.00 0.00 51 1013.9
20260830170510 95 118 3.0 7.0 0.00 0.00 0.00 53 1014.0
20260830165508 94 138 2.0 6.0 0.00 0.00 0.00 54 1014.2
20260830165008 94 155 3.0 11.0 0.00 0.00 0.00 54 1014.3
20260830164511 94 140 3.0 11.0 0.00 0.00 0.00 54 1014.4
20260830164008 94 105 3.0 8.0 0.00 0.00 0.00 55 1014.4
20260830163510 93 148 3.0 8.0 0.00 0.00 0.00 56 1014.4
20260830162510 93 86 3.0 9.0 0.00 0.00 0.00 57 1014.5
20260830162008 92 125 3.0 9.0 0.00 0.00 0.00 58 1014.6
20260830161008 92 133 4.0 9.0 0.00 0.00 0.00 61 1014.6
20260830160512 91 119 3.0 9.0 0.00 0.00 0.00 62 1014.5
20260830160009 92 179 3.0 7.0 0.00 0.00 0.00 62 1014.6
20260830155008 91 195 4.0 10.0 0.00 0.00 0.00 64 1014.6
20260830154008 91 102 3.0 8.0 0.00 0.00 0.00 63 1014.4
20260830153510 91 122 3.0 7.0 0.00 0.00 0.00 65 1014.4
20260830152504 90 188 3.0 9.0 0.00 0.00 0.00 66 1014.5
20260830152005 89 181 3.0 9.0 0.00 0.00 0.00 68 1014.4
20260830151505 89 170 4.0 11.0 0.00 0.00 0.00 68 1014.4
20260830151004 89 199 4.0 11.0 0.00 0.00 0.00 70 1014.3
20260830150505 89 186 3.0 9.0 0.00 0.00 0.00 70 1014.3
20260830150005 88 129 2.0 7.0 0.00 0.00 0.00 72 1014.4
20260830145004 88 118 4.0 9.0 0.00 0.00 0.00 75 1014.3
20260830144505 88 186 3.0 7.0 0.00 0.00 0.00 73 1014.4
20260830143503 87 172 2.0 8.0 0.00 0.00 0.00 76 1014.3
20260830142511 86 181 4.0 9.0 0.00 0.00 0.00 77 1014.3
20260830142004 86 175 4.0 9.0 0.00 0.00 0.00 79 1014.3
20260830141002 86 151 3.0 7.0 0.00 0.00 0.00 80 1014.3
20260830140502 85 222 3.0 7.0 0.00 0.00 0.00 80 1014.3
20260830135502 85 153 3.0 10.0 0.00 0.00 0.00 82 1014.3
20260830134503 85 161 2.0 5.0 0.00 0.00 0.00 81 1014.2
20260830134003 85 168 2.0 5.0 0.00 0.00 0.00 81 1014.2
20260830133503 85 135 2.0 4.0 0.00 0.00 0.00 83 1014.1
20260830132502 84 140 2.0 3.0 0.00 0.00 0.00 83 1014.0
20260830132001 84 168 2.0 3.0 0.00 0.00 0.00 83 1014.0
20260830130947 83 165 2.0 4.0 0.00 0.00 0.00 85 1013.9
20260830130433 83 159 2.0 4.0 0.00 0.00 0.00 86 1013.9
20260830125931 82 152 3.0 4.0 0.00 0.00 0.00 87 1013.8
20260830125433 82 168 3.0 4.0 0.00 0.00 0.00 88 1013.8